Regional Weather Roundup
Issued by NWS Goodland, KS

Home | Current Version | Previous Version | Graphics & Text | Print | Product List | Glossary On
Versions: 1 2 3 4 5 6 7 8 9 10 11 12 13 14 15 16 17 18 19 20 21 22 23 24 25 26 27 28 29 30 31 32 33 34 35 36 37 38 39 40 41 42 43 44 45 46 47 48 49 50
000
ASUS43 KGLD 171759
RWRGLD

GOODLAND FORECAST AREA HOURLY WEATHER ROUNDUP
NATIONAL WEATHER SERVICE GOODLAND KS
1200 PM MDT THU APR 17 2014

...OFFICIAL OBSERVATIONS...

CITY           SKY/WX    TMP DP  RH WIND       PRES   REMARKS
GOODLAND KS    CLOUDY    44  33  65 S16G22    30.24F
HILL CITY KS   SUNNY     45  27  49 W5        30.31F
IMPERIAL NEB   CLOUDY    38  30  73 SE14      30.24F
MCCOOK NEB     SUNNY     43  29  57 VRB7      30.29F
AKRON CO       MOSUNNY   53  34  48 S17G26    30.10F
BURLINGTON CO  CLOUDY    41  34  76 S18       30.21F
LIMON CO       SUNNY     49  33  54 S22G30    30.15F
$$

...UNOFFICIAL OBSERVATIONS...

CITY           SKY/WX    TMP DP  RH WIND       PRES   REMARKS
COLBY KS       MOSUNNY   43  34  70 SE3       30.27F
GOVE KS          N/A     45  32  60 CALM        N/A
LENORA KS        N/A     40  32  73 CALM        N/A
LEOTI KS         N/A     47  32  56 CALM        N/A
NORTON KS      SUNNY     39  27  60 CALM      30.29F
SHARON SPRINGS   N/A     46  35  66 S12         N/A
WAKEENEY KS      N/A     47  25  41 MISG        N/A
KIT CARSON CO    N/A     44  36  74 MISG        N/A
$$



USA.gov is the U.S. government's official web portal to all federal, state and local government web resources and services.